Terminal Aerodrome Forecast
Issued by NWS Wilmington, OH

Current Version | Previous Version | Graphics & Text | Print | Product List | Glossary On
Versions: 1 2 3 4 5 6 7 8 9 10 11 12 13 14 15 16 17 18 19 20 21 22 23 24 25 26 27
325
FTUS41 KILN 290258 AAC
TAFILN
TAF AMD
KILN 290258Z 2903/2924 01006KT 5SM BR FEW006 SCT070
     FM290400 34004KT 2SM BR BKN006
     FM290800 32003KT 1SM BR OVC004
     FM291300 32006KT 3SM BR BKN015
     FM291500 29007KT P6SM BKN025
     FM291800 28008KT P6SM BKN035=

USA.gov is the U.S. government's official web portal to all federal, state and local government web resources and services.